Time,TemperatureF,DewpointF,PressureIn,WindDirection,WindDirectionDegrees,WindSpeedMPH,WindSpeedGustMPH,Humidity,HourlyPrecipIn,Conditions,Clouds,dailyrainin,SoftwareType,DateUTC
2013-06-22 00:02:00,81.3,68.9,29.99,ESE,112,8.0,20.0,66,0.00,,,0.00,meteohub,2013-06-22 05:02:00,
2013-06-22 00:07:00,81.1,69.1,29.99,SSW,213,11.0,22.0,67,0.00,,,0.00,meteohub,2013-06-22 05:07:00,
2013-06-22 00:12:00,81.0,68.9,29.99,SSE,159,9.0,23.0,67,0.00,,,0.00,meteohub,2013-06-22 05:12:00,
2013-06-22 00:17:00,81.0,68.9,29.99,SW,229,13.0,23.0,67,0.00,,,0.00,meteohub,2013-06-22 05:17:00,
2013-06-22 00:22:00,80.8,68.7,29.99,SSE,160,13.0,19.0,67,0.00,,,0.00,meteohub,2013-06-22 05:22:00,
2013-06-22 00:27:00,80.8,68.7,29.99,SSW,213,20.0,20.0,67,0.00,,,0.00,meteohub,2013-06-22 05:27:00,
2013-06-22 00:32:00,80.8,68.7,29.99,South,190,11.0,20.0,67,0.00,,,0.00,meteohub,2013-06-22 05:32:00,
2013-06-22 00:37:00,80.6,68.5,29.99,SSE,150,8.0,23.0,67,0.00,,,0.00,meteohub,2013-06-22 05:37:00,
2013-06-22 00:42:00,80.4,68.5,29.99,SE,127,11.0,23.0,67,0.00,,,0.00,meteohub,2013-06-22 05:42:00,
2013-06-22 00:47:00,80.4,68.5,29.99,SSE,152,12.0,23.0,67,0.00,,,0.00,meteohub,2013-06-22 05:47:00,
2013-06-22 00:52:00,80.2,68.4,29.99,South,191,12.0,20.0,67,0.00,,,0.00,meteohub,2013-06-22 05:52:00,
2013-06-22 00:57:00,80.2,68.4,29.99,SE,142,13.0,19.0,67,0.00,,,0.00,meteohub,2013-06-22 05:57:00,
2013-06-22 01:02:00,80.2,68.4,29.99,SW,231,8.0,19.0,67,0.00,,,0.00,meteohub,2013-06-22 06:02:00,
2013-06-22 01:07:00,80.2,68.4,29.98,SSE,158,11.0,16.0,67,0.00,,,0.00,meteohub,2013-06-22 06:07:00,
2013-06-22 01:13:00,80.1,68.5,29.98,ESE,122,16.0,21.0,68,0.00,,,0.00,meteohub,2013-06-22 06:13:00,
2013-06-22 01:18:00,79.9,68.4,29.98,SE,142,13.0,21.0,68,0.00,,,0.00,meteohub,2013-06-22 06:18:00,
2013-06-22 01:23:00,79.7,68.5,29.98,SSE,156,12.0,21.0,69,0.00,,,0.00,meteohub,2013-06-22 06:23:00,
2013-06-22 01:28:00,79.5,68.5,29.97,SW,220,9.0,19.0,69,0.00,,,0.00,meteohub,2013-06-22 06:28:00,
2013-06-22 01:33:00,79.5,68.5,29.98,SSE,160,15.0,20.0,69,0.00,,,0.00,meteohub,2013-06-22 06:33:00,
2013-06-22 01:38:00,79.5,68.5,29.97,South,188,11.0,20.0,69,0.00,,,0.00,meteohub,2013-06-22 06:38:00,
2013-06-22 01:43:00,79.7,68.5,29.97,SE,124,18.0,20.0,69,0.00,,,0.00,meteohub,2013-06-22 06:43:00,
2013-06-22 01:48:00,79.7,68.5,29.97,South,169,17.0,27.0,69,0.00,,,0.00,meteohub,2013-06-22 06:48:00,
2013-06-22 01:53:00,79.7,68.5,29.97,SSE,152,13.0,27.0,69,0.00,,,0.00,meteohub,2013-06-22 06:53:00,
2013-06-22 01:58:00,79.7,68.5,29.97,SE,144,18.0,27.0,69,0.00,,,0.00,meteohub,2013-06-22 06:58:00,
2013-06-22 02:03:00,79.5,68.5,29.97,SSE,159,13.0,20.0,69,0.00,,,0.00,meteohub,2013-06-22 07:03:00,
2013-06-22 02:08:00,79.3,68.4,29.97,SE,142,19.0,20.0,69,0.00,,,0.00,meteohub,2013-06-22 07:08:00,
2013-06-22 02:13:00,79.3,68.4,29.97,South,177,8.0,23.0,69,0.00,,,0.00,meteohub,2013-06-22 07:13:00,
2013-06-22 02:18:00,79.2,68.2,29.97,South,179,10.0,23.0,69,0.00,,,0.00,meteohub,2013-06-22 07:18:00,
2013-06-22 02:23:00,79.2,68.5,29.97,SSE,162,8.0,23.0,70,0.00,,,0.00,meteohub,2013-06-22 07:23:00,
2013-06-22 02:28:00,79.0,68.4,29.97,SSE,148,9.0,21.0,70,0.00,,,0.00,meteohub,2013-06-22 07:28:00,
2013-06-22 02:33:00,79.0,68.4,29.97,SSE,166,12.0,21.0,70,0.00,,,0.00,meteohub,2013-06-22 07:33:00,
2013-06-22 02:38:00,78.8,68.2,29.97,South,181,7.0,21.0,70,0.00,,,0.00,meteohub,2013-06-22 07:38:00,
2013-06-22 02:43:00,78.6,68.4,29.97,SSW,195,4.0,23.0,71,0.00,,,0.00,meteohub,2013-06-22 07:43:00,
2013-06-22 02:48:00,78.6,68.4,29.97,SSW,210,11.0,23.0,71,0.00,,,0.00,meteohub,2013-06-22 07:48:00,
2013-06-22 02:53:00,78.4,68.2,29.97,ESE,121,5.0,23.0,71,0.00,,,0.00,meteohub,2013-06-22 07:53:00,
2013-06-22 02:58:00,78.4,68.2,29.97,SSE,165,16.0,21.0,71,0.00,,,0.00,meteohub,2013-06-22 07:58:00,
2013-06-22 03:03:00,78.4,68.2,29.97,SSE,153,8.0,21.0,71,0.00,,,0.00,meteohub,2013-06-22 08:03:00,
2013-06-22 03:08:00,78.4,68.2,29.97,SSE,147,7.0,21.0,71,0.00,,,0.00,meteohub,2013-06-22 08:08:00,
2013-06-22 03:13:00,78.3,68.5,29.96,SW,217,11.0,20.0,72,0.00,,,0.00,meteohub,2013-06-22 08:13:00,
2013-06-22 03:18:00,78.3,68.5,29.96,ESE,109,13.0,18.0,72,0.00,,,0.00,meteohub,2013-06-22 08:18:00,
2013-06-22 03:23:00,78.1,68.4,29.96,SE,134,10.0,18.0,72,0.00,,,0.00,meteohub,2013-06-22 08:23:00,
2013-06-22 03:28:00,78.1,68.4,29.96,SE,142,7.0,20.0,72,0.00,,,0.00,meteohub,2013-06-22 08:28:00,
2013-06-22 03:33:00,78.1,68.4,29.96,South,177,7.0,20.0,72,0.00,,,0.00,meteohub,2013-06-22 08:33:00,
2013-06-22 03:38:00,77.9,68.2,29.96,SSW,207,6.0,21.0,72,0.00,,,0.00,meteohub,2013-06-22 08:38:00,
2013-06-22 03:43:00,77.7,68.4,29.96,South,169,13.0,21.0,73,0.00,,,0.00,meteohub,2013-06-22 08:43:00,
2013-06-22 03:48:00,77.7,68.4,29.96,SSW,200,10.0,21.0,73,0.00,,,0.00,meteohub,2013-06-22 08:48:00,
2013-06-22 03:53:00,77.5,68.2,29.95,South,188,5.0,18.0,73,0.00,,,0.00,meteohub,2013-06-22 08:53:00,
2013-06-22 03:58:00,77.5,68.2,29.95,South,185,8.0,18.0,73,0.00,,,0.00,meteohub,2013-06-22 08:58:00,
2013-06-22 04:03:00,77.5,68.2,29.95,SSE,158,6.0,18.0,73,0.00,,,0.00,meteohub,2013-06-22 09:03:00,
2013-06-22 04:08:00,77.4,68.0,29.96,SSE,167,6.0,20.0,73,0.00,,,0.00,meteohub,2013-06-22 09:08:00,
2013-06-22 04:13:00,77.4,68.0,29.96,SSE,163,9.0,20.0,73,0.00,,,0.00,meteohub,2013-06-22 09:13:00,
2013-06-22 04:18:00,77.4,68.0,29.96,SE,141,8.0,20.0,73,0.00,,,0.00,meteohub,2013-06-22 09:18:00,
2013-06-22 04:23:00,77.2,67.8,29.96,SSE,156,11.0,20.0,73,0.00,,,0.00,meteohub,2013-06-22 09:23:00,
2013-06-22 04:28:00,77.2,67.8,29.96,SSW,197,5.0,19.0,73,0.00,,,0.00,meteohub,2013-06-22 09:28:00,
2013-06-22 04:33:00,77.2,67.8,29.96,SSE,162,4.0,16.0,73,0.00,,,0.00,meteohub,2013-06-22 09:33:00,
2013-06-22 04:38:00,77.2,67.8,29.96,SSW,195,8.0,16.0,73,0.00,,,0.00,meteohub,2013-06-22 09:38:00,
2013-06-22 04:43:00,77.2,67.8,29.96,SSE,167,5.0,16.0,73,0.00,,,0.00,meteohub,2013-06-22 09:43:00,
2013-06-22 04:48:00,77.2,67.8,29.96,SW,219,9.0,16.0,73,0.00,,,0.00,meteohub,2013-06-22 09:48:00,
2013-06-22 04:53:00,77.2,67.8,29.96,SW,225,8.0,22.0,73,0.00,,,0.00,meteohub,2013-06-22 09:53:00,
2013-06-22 04:58:00,77.2,67.8,29.96,SSE,160,9.0,22.0,73,0.00,,,0.00,meteohub,2013-06-22 09:58:00,
2013-06-22 05:03:00,77.2,67.8,29.96,SE,143,5.0,22.0,73,0.00,,,0.00,meteohub,2013-06-22 10:03:00,
2013-06-22 05:08:00,77.2,67.8,29.96,SSE,162,13.0,18.0,73,0.00,,,0.00,meteohub,2013-06-22 10:08:00,
2013-06-22 05:13:00,77.0,67.6,29.96,South,190,9.0,18.0,73,0.00,,,0.00,meteohub,2013-06-22 10:13:00,
2013-06-22 05:18:00,76.8,67.8,29.96,SSE,153,11.0,17.0,74,0.00,,,0.00,meteohub,2013-06-22 10:18:00,
2013-06-22 05:23:00,76.6,67.6,29.96,SSE,160,5.0,16.0,74,0.00,,,0.00,meteohub,2013-06-22 10:23:00,
2013-06-22 05:28:00,76.6,67.6,29.96,SE,141,5.0,16.0,74,0.00,,,0.00,meteohub,2013-06-22 10:28:00,
2013-06-22 05:33:00,76.5,67.6,29.96,SE,134,6.0,17.0,74,0.00,,,0.00,meteohub,2013-06-22 10:33:00,
2013-06-22 05:38:00,76.5,67.6,29.96,SSW,201,5.0,18.0,74,0.00,,,0.00,meteohub,2013-06-22 10:38:00,
2013-06-22 05:43:00,76.3,67.8,29.96,South,177,8.0,18.0,75,0.00,,,0.00,meteohub,2013-06-22 10:43:00,
2013-06-22 05:48:00,76.3,67.8,29.97,SE,127,9.0,18.0,75,0.00,,,0.00,meteohub,2013-06-22 10:48:00,
2013-06-22 05:53:00,76.1,67.6,29.97,SSE,153,6.0,16.0,75,0.00,,,0.00,meteohub,2013-06-22 10:53:00,
2013-06-22 05:59:00,75.9,67.5,29.97,South,176,7.0,16.0,75,0.00,,,0.00,meteohub,2013-06-22 10:59:00,
2013-06-22 06:04:00,75.9,67.5,29.97,SSE,150,5.0,16.0,75,0.00,,,0.00,meteohub,2013-06-22 11:04:00,
2013-06-22 06:09:00,75.7,67.6,29.97,SSW,199,7.0,16.0,76,0.00,,,0.00,meteohub,2013-06-22 11:09:00,
2013-06-22 06:14:00,75.7,67.6,29.97,SW,215,4.0,18.0,76,0.00,,,0.00,meteohub,2013-06-22 11:14:00,
2013-06-22 06:19:00,75.7,67.6,29.97,SSE,153,10.0,20.0,76,0.00,,,0.00,meteohub,2013-06-22 11:19:00,
2013-06-22 06:24:00,75.6,67.5,29.97,South,186,9.0,20.0,76,0.00,,,0.00,meteohub,2013-06-22 11:24:00,
2013-06-22 06:29:00,75.6,67.5,29.98,South,190,6.0,20.0,76,0.00,,,0.00,meteohub,2013-06-22 11:29:00,
2013-06-22 06:34:00,75.4,67.6,29.98,South,179,5.0,17.0,77,0.00,,,0.00,meteohub,2013-06-22 11:34:00,
2013-06-22 06:39:00,75.4,67.6,29.98,SSW,195,12.0,19.0,77,0.00,,,0.00,meteohub,2013-06-22 11:39:00,
2013-06-22 06:44:00,75.4,67.6,29.98,SE,141,6.0,19.0,77,0.00,,,0.00,meteohub,2013-06-22 11:44:00,
2013-06-22 06:49:00,75.6,67.8,29.98,South,185,8.0,19.0,77,0.00,,,0.00,meteohub,2013-06-22 11:49:00,
2013-06-22 06:54:00,75.7,67.6,29.98,SSE,163,7.0,15.0,76,0.00,,,0.00,meteohub,2013-06-22 11:54:00,
2013-06-22 06:59:00,75.9,67.8,29.98,SSW,212,8.0,15.0,76,0.00,,,0.00,meteohub,2013-06-22 11:59:00,
2013-06-22 07:04:00,76.3,67.8,29.99,SE,145,8.0,15.0,75,0.00,,,0.00,meteohub,2013-06-22 12:04:00,
2013-06-22 07:09:00,76.3,67.8,29.99,SSW,206,9.0,15.0,75,0.00,,,0.00,meteohub,2013-06-22 12:09:00,
2013-06-22 07:14:00,76.5,68.0,29.99,SE,145,6.0,15.0,75,0.00,,,0.00,meteohub,2013-06-22 12:14:00,
2013-06-22 07:19:00,76.5,68.0,29.99,SSW,207,7.0,14.0,75,0.00,,,0.00,meteohub,2013-06-22 12:19:00,
2013-06-22 07:24:00,76.6,68.2,29.99,SE,145,10.0,13.0,75,0.00,,,0.00,meteohub,2013-06-22 12:24:00,
2013-06-22 07:29:00,76.6,67.6,29.99,South,186,4.0,13.0,74,0.00,,,0.00,meteohub,2013-06-22 12:29:00,
2013-06-22 07:34:00,76.8,67.8,29.99,SSE,167,8.0,15.0,74,0.00,,,0.00,meteohub,2013-06-22 12:34:00,
2013-06-22 07:39:00,77.0,68.0,29.99,SSW,197,10.0,15.0,74,0.00,,,0.00,meteohub,2013-06-22 12:39:00,
2013-06-22 07:44:00,77.4,68.0,29.99,South,188,8.0,15.0,73,0.00,,,0.00,meteohub,2013-06-22 12:44:00,
2013-06-22 07:49:00,77.4,68.0,29.99,SSE,163,13.0,15.0,73,0.00,,,0.00,meteohub,2013-06-22 12:49:00,
2013-06-22 07:54:00,77.7,67.6,29.99,South,185,6.0,20.0,71,0.00,,,0.00,meteohub,2013-06-22 12:54:00,
2013-06-22 07:59:00,77.7,67.6,29.99,SW,222,13.0,20.0,71,0.00,,,0.00,meteohub,2013-06-22 12:59:00,
2013-06-22 08:04:00,78.1,67.8,29.99,SSW,210,8.0,20.0,71,0.00,,,0.00,meteohub,2013-06-22 13:04:00,
2013-06-22 08:09:00,78.4,67.8,29.99,SSE,163,5.0,19.0,70,0.00,,,0.00,meteohub,2013-06-22 13:09:00,
2013-06-22 08:14:00,78.8,67.8,29.99,SSE,165,10.0,19.0,69,0.00,,,0.00,meteohub,2013-06-22 13:14:00,
2013-06-22 08:19:00,79.2,67.6,30.00,South,169,6.0,17.0,68,0.00,,,0.00,meteohub,2013-06-22 13:19:00,
2013-06-22 08:24:00,79.5,68.0,29.99,South,174,4.0,19.0,68,0.00,,,0.00,meteohub,2013-06-22 13:24:00,
2013-06-22 08:29:00,79.7,67.8,29.99,SE,141,8.0,19.0,67,0.00,,,0.00,meteohub,2013-06-22 13:29:00,
2013-06-22 08:34:00,79.9,67.5,29.99,SSE,165,5.0,19.0,66,0.00,,,0.00,meteohub,2013-06-22 13:34:00,
2013-06-22 08:39:00,80.2,67.5,29.99,SW,221,13.0,19.0,65,0.00,,,0.00,meteohub,2013-06-22 13:39:00,
2013-06-22 08:44:00,80.4,68.0,29.99,SSE,158,6.0,19.0,66,0.00,,,0.00,meteohub,2013-06-22 13:44:00,
2013-06-22 08:50:00,80.8,67.5,29.99,South,174,7.0,18.0,64,0.00,,,0.00,meteohub,2013-06-22 13:50:00,
2013-06-22 08:55:00,81.1,67.8,29.99,SSW,208,8.0,20.0,64,0.00,,,0.00,meteohub,2013-06-22 13:55:00,
2013-06-22 09:00:00,81.5,67.6,30.00,SSW,207,9.0,20.0,63,0.00,,,0.00,meteohub,2013-06-22 14:00:00,
2013-06-22 09:05:00,81.7,67.5,29.99,SSE,160,13.0,20.0,62,0.00,,,0.00,meteohub,2013-06-22 14:05:00,
2013-06-22 09:10:00,81.5,66.7,30.00,SE,124,10.0,20.0,61,0.00,,,0.00,meteohub,2013-06-22 14:10:00,
2013-06-22 09:15:00,81.5,66.7,30.00,SW,233,12.0,26.0,61,0.00,,,0.00,meteohub,2013-06-22 14:15:00,
2013-06-22 09:20:00,81.5,66.7,30.00,SSW,208,12.0,26.0,61,0.00,,,0.00,meteohub,2013-06-22 14:20:00,
2013-06-22 09:25:00,81.5,67.3,30.00,SSW,208,5.0,26.0,62,0.00,,,0.00,meteohub,2013-06-22 14:25:00,
2013-06-22 09:30:00,81.5,66.7,29.99,SW,215,8.0,20.0,61,0.00,,,0.00,meteohub,2013-06-22 14:30:00,
2013-06-22 09:35:00,81.3,66.6,29.99,SSW,213,7.0,19.0,61,0.00,,,0.00,meteohub,2013-06-22 14:35:00,
2013-06-22 09:40:00,81.1,66.4,29.99,SSW,205,10.0,19.0,61,0.00,,,0.00,meteohub,2013-06-22 14:40:00,
2013-06-22 09:45:00,81.1,66.4,29.99,SW,218,13.0,20.0,61,0.00,,,0.00,meteohub,2013-06-22 14:45:00,
2013-06-22 09:50:00,81.0,66.2,29.99,South,191,8.0,23.0,61,0.00,,,0.00,meteohub,2013-06-22 14:50:00,
2013-06-22 09:55:00,81.1,66.4,29.99,SW,229,7.0,23.0,61,0.00,,,0.00,meteohub,2013-06-22 14:55:00,
2013-06-22 10:00:00,81.3,66.6,29.99,SW,222,12.0,21.0,61,0.00,,,0.00,meteohub,2013-06-22 15:00:00,
2013-06-22 10:05:00,81.5,66.2,29.99,SW,236,8.0,23.0,60,0.00,,,0.00,meteohub,2013-06-22 15:05:00,
2013-06-22 10:10:00,81.7,66.4,29.98,SSW,208,14.0,23.0,60,0.00,,,0.00,meteohub,2013-06-22 15:10:00,
2013-06-22 10:15:00,81.7,66.4,29.99,SSW,211,7.0,23.0,60,0.00,,,0.00,meteohub,2013-06-22 15:15:00,
2013-06-22 10:20:00,82.0,66.4,29.98,SW,217,14.0,23.0,59,0.00,,,0.00,meteohub,2013-06-22 15:20:00,
2013-06-22 10:25:00,82.6,66.4,29.98,South,169,8.0,22.0,58,0.00,,,0.00,meteohub,2013-06-22 15:25:00,
2013-06-22 10:30:00,82.9,66.2,29.98,SW,218,11.0,22.0,57,0.00,,,0.00,meteohub,2013-06-22 15:30:00,
2013-06-22 10:35:00,83.3,66.0,29.98,SW,226,11.0,22.0,56,0.00,,,0.00,meteohub,2013-06-22 15:35:00,
2013-06-22 10:40:00,83.5,66.2,29.98,South,184,11.0,22.0,56,0.00,,,0.00,meteohub,2013-06-22 15:40:00,
2013-06-22 10:45:00,84.0,66.2,29.98,SSW,204,14.0,24.0,55,0.00,,,0.00,meteohub,2013-06-22 15:45:00,
2013-06-22 10:50:00,84.7,66.2,29.97,SSW,200,10.0,24.0,54,0.00,,,0.00,meteohub,2013-06-22 15:50:00,
2013-06-22 10:55:00,85.5,66.4,29.98,SE,142,12.0,30.0,53,0.00,,,0.00,meteohub,2013-06-22 15:55:00,
2013-06-22 11:00:00,85.8,66.2,29.98,SW,220,7.0,30.0,52,0.00,,,0.00,meteohub,2013-06-22 16:00:00,
2013-06-22 11:05:00,86.2,65.3,29.98,SW,217,15.0,27.0,50,0.00,,,0.00,meteohub,2013-06-22 16:05:00,
2013-06-22 11:10:00,86.4,65.5,29.98,SE,137,9.0,27.0,50,0.00,,,0.00,meteohub,2013-06-22 16:10:00,
2013-06-22 11:15:00,86.5,65.1,29.97,SSW,198,6.0,26.0,49,0.00,,,0.00,meteohub,2013-06-22 16:15:00,
2013-06-22 11:20:00,86.9,66.0,29.98,SSE,163,20.0,26.0,50,0.00,,,0.00,meteohub,2013-06-22 16:20:00,
2013-06-22 11:25:00,87.1,64.9,29.97,SSW,197,16.0,26.0,48,0.00,,,0.00,meteohub,2013-06-22 16:25:00,
2013-06-22 11:30:00,87.4,65.3,29.97,SSW,197,11.0,23.0,48,0.00,,,0.00,meteohub,2013-06-22 16:30:00,
2013-06-22 11:35:00,87.3,65.1,29.98,South,190,8.0,23.0,48,0.00,,,0.00,meteohub,2013-06-22 16:35:00,
2013-06-22 11:40:00,87.1,64.4,29.97,SSW,195,14.0,23.0,47,0.00,,,0.00,meteohub,2013-06-22 16:40:00,
2013-06-22 11:45:00,87.3,64.6,29.97,SW,225,17.0,26.0,47,0.00,,,0.00,meteohub,2013-06-22 16:45:00,
2013-06-22 11:50:00,87.6,65.5,29.97,SSE,151,11.0,26.0,48,0.00,,,0.00,meteohub,2013-06-22 16:50:00,
2013-06-22 11:56:00,88.3,65.5,29.97,SW,221,10.0,26.0,47,0.00,,,0.00,meteohub,2013-06-22 16:56:00,
2013-06-22 12:01:00,89.1,64.9,29.97,South,183,11.0,26.0,45,0.00,,,0.00,meteohub,2013-06-22 17:01:00,
2013-06-22 12:06:00,89.4,65.3,29.97,SE,144,11.0,26.0,45,0.00,,,0.00,meteohub,2013-06-22 17:06:00,
2013-06-22 12:11:00,89.6,64.8,29.97,South,187,13.0,25.0,44,0.00,,,0.00,meteohub,2013-06-22 17:11:00,
2013-06-22 12:16:00,90.0,65.8,29.97,SW,232,12.0,25.0,45,0.00,,,0.00,meteohub,2013-06-22 17:16:00,
2013-06-22 12:21:00,90.3,64.8,29.97,South,175,11.0,29.0,43,0.00,,,0.00,meteohub,2013-06-22 17:21:00,
2013-06-22 12:26:00,90.1,65.8,29.97,SE,140,10.0,29.0,45,0.00,,,0.00,meteohub,2013-06-22 17:26:00,
2013-06-22 12:31:00,90.7,65.8,29.97,SE,140,11.0,27.0,44,0.00,,,0.00,meteohub,2013-06-22 17:31:00,
2013-06-22 12:36:00,91.0,65.5,29.98,SW,219,10.0,27.0,43,0.00,,,0.00,meteohub,2013-06-22 17:36:00,
2013-06-22 12:41:00,91.2,64.9,29.97,South,169,20.0,24.0,42,0.00,,,0.00,meteohub,2013-06-22 17:41:00,
2013-06-22 12:46:00,91.4,65.1,29.97,SSE,160,20.0,21.0,42,0.00,,,0.00,meteohub,2013-06-22 17:46:00,
2013-06-22 12:51:00,91.2,64.9,29.97,SSW,201,21.0,21.0,42,0.00,,,0.00,meteohub,2013-06-22 17:51:00,
2013-06-22 12:56:00,91.2,64.2,29.97,SSE,166,16.0,30.0,41,0.00,,,0.00,meteohub,2013-06-22 17:56:00,
2013-06-22 13:01:00,91.8,64.8,29.97,SSE,165,18.0,30.0,41,0.00,,,0.00,meteohub,2013-06-22 18:01:00,
2013-06-22 13:06:00,91.8,64.8,29.97,SE,143,24.0,30.0,41,0.00,,,0.00,meteohub,2013-06-22 18:06:00,
2013-06-22 13:11:00,91.6,63.9,29.97,SSE,148,19.0,26.0,40,0.00,,,0.00,meteohub,2013-06-22 18:11:00,
2013-06-22 13:16:00,92.3,65.1,29.96,South,180,8.0,27.0,41,0.00,,,0.00,meteohub,2013-06-22 18:16:00,
2013-06-22 13:21:00,92.1,64.4,29.96,SE,146,13.0,27.0,40,0.00,,,0.00,meteohub,2013-06-22 18:21:00,
2013-06-22 13:26:00,91.9,64.2,29.96,SSW,201,14.0,25.0,40,0.00,,,0.00,meteohub,2013-06-22 18:26:00,
2013-06-22 13:31:00,92.1,64.9,29.96,SSE,153,11.0,25.0,41,0.00,,,0.00,meteohub,2013-06-22 18:31:00,
2013-06-22 13:36:00,92.1,64.4,29.96,SE,134,22.0,27.0,40,0.00,,,0.00,meteohub,2013-06-22 18:36:00,
2013-06-22 13:41:00,91.9,64.2,29.96,SSE,158,16.0,30.0,40,0.00,,,0.00,meteohub,2013-06-22 18:41:00,
2013-06-22 13:46:00,91.9,64.2,29.95,SE,145,12.0,30.0,40,0.00,,,0.00,meteohub,2013-06-22 18:46:00,
2013-06-22 13:51:00,91.9,64.2,29.95,SSE,160,20.0,30.0,40,0.00,,,0.00,meteohub,2013-06-22 18:51:00,
2013-06-22 13:56:00,92.3,64.4,29.94,SE,129,17.0,28.0,40,0.00,,,0.00,meteohub,2013-06-22 18:56:00,
2013-06-22 14:01:00,92.5,63.9,29.94,ESE,119,16.0,28.0,39,0.00,,,0.00,meteohub,2013-06-22 19:01:00,
2013-06-22 14:06:00,92.8,64.2,29.94,SE,141,8.0,25.0,39,0.00,,,0.00,meteohub,2013-06-22 19:06:00,
2013-06-22 14:11:00,92.8,64.2,29.93,South,184,11.0,30.0,39,0.00,,,0.00,meteohub,2013-06-22 19:11:00,
2013-06-22 14:16:00,92.8,63.5,29.93,SSE,148,14.0,30.0,38,0.00,,,0.00,meteohub,2013-06-22 19:16:00,
2013-06-22 14:21:00,93.0,64.4,29.93,South,181,12.0,30.0,39,0.00,,,0.00,meteohub,2013-06-22 19:21:00,
2013-06-22 14:26:00,93.0,64.4,29.93,South,183,14.0,28.0,39,0.00,,,0.00,meteohub,2013-06-22 19:26:00,
2013-06-22 14:31:00,93.2,63.9,29.93,SSE,160,22.0,28.0,38,0.00,,,0.00,meteohub,2013-06-22 19:31:00,
2013-06-22 14:36:00,93.0,65.1,29.93,SSE,158,19.0,27.0,40,0.00,,,0.00,meteohub,2013-06-22 19:36:00,
2013-06-22 14:41:00,93.4,64.8,29.92,South,180,10.0,27.0,39,0.00,,,0.00,meteohub,2013-06-22 19:41:00,
2013-06-22 14:46:00,93.4,64.0,29.91,SE,139,18.0,27.0,38,0.00,,,0.00,meteohub,2013-06-22 19:46:00,
2013-06-22 14:51:00,93.2,64.6,29.92,SE,137,8.0,29.0,39,0.00,,,0.00,meteohub,2013-06-22 19:51:00,
2013-06-22 14:56:00,93.0,64.4,29.91,SE,136,16.0,29.0,39,0.00,,,0.00,meteohub,2013-06-22 19:56:00,
2013-06-22 15:01:00,92.8,64.2,29.91,ESE,121,20.0,30.0,39,0.00,,,0.00,meteohub,2013-06-22 20:01:00,
2013-06-22 15:06:00,93.6,64.9,29.91,SSE,158,10.0,30.0,39,0.00,,,0.00,meteohub,2013-06-22 20:06:00,
2013-06-22 15:12:00,93.4,64.8,29.91,SSW,209,7.0,30.0,39,0.00,,,0.00,meteohub,2013-06-22 20:12:00,
2013-06-22 15:17:00,93.4,64.8,29.91,ESE,110,7.0,26.0,39,0.00,,,0.00,meteohub,2013-06-22 20:17:00,
2013-06-22 15:21:00,93.2,64.6,29.91,SE,134,20.0,26.0,39,0.00,,,0.00,meteohub,2013-06-22 20:21:00,
2013-06-22 15:26:00,93.0,65.1,29.91,SE,136,17.0,33.0,40,0.00,,,0.00,meteohub,2013-06-22 20:26:00,
2013-06-22 15:32:00,92.5,64.6,29.91,ESE,115,27.0,33.0,40,0.00,,,0.00,meteohub,2013-06-22 20:32:00,
2013-06-22 15:37:00,92.7,64.8,29.90,SE,145,23.0,33.0,40,0.00,,,0.00,meteohub,2013-06-22 20:37:00,
2013-06-22 15:42:00,92.7,64.8,29.90,SSE,167,26.0,33.0,40,0.00,,,0.00,meteohub,2013-06-22 20:42:00,
2013-06-22 15:47:00,92.7,64.0,29.90,SSE,155,17.0,33.0,39,0.00,,,0.00,meteohub,2013-06-22 20:47:00,
2013-06-22 15:52:00,93.0,63.7,29.90,SE,142,13.0,33.0,38,0.00,,,0.00,meteohub,2013-06-22 20:52:00,
2013-06-22 15:57:00,93.0,64.4,29.90,SE,143,26.0,34.0,39,0.00,,,0.00,meteohub,2013-06-22 20:57:00,
2013-06-22 16:02:00,92.8,63.5,29.90,SE,143,4.0,34.0,38,0.00,,,0.00,meteohub,2013-06-22 21:02:00,
2013-06-22 16:07:00,93.2,65.3,29.89,SSW,197,11.0,34.0,40,0.00,,,0.00,meteohub,2013-06-22 21:07:00,
2013-06-22 16:12:00,93.2,64.6,29.90,SSW,209,17.0,33.0,39,0.00,,,0.00,meteohub,2013-06-22 21:12:00,
2013-06-22 16:17:00,92.8,64.2,29.89,SSE,148,15.0,27.0,39,0.00,,,0.00,meteohub,2013-06-22 21:17:00,
2013-06-22 16:22:00,92.7,65.5,29.89,SE,145,14.0,31.0,41,0.00,,,0.00,meteohub,2013-06-22 21:22:00,
2013-06-22 16:27:00,92.5,63.9,29.90,SSE,149,18.0,31.0,39,0.00,,,0.00,meteohub,2013-06-22 21:27:00,
2013-06-22 16:32:00,92.1,63.7,29.90,SE,131,23.0,30.0,39,0.00,,,0.00,meteohub,2013-06-22 21:32:00,
2013-06-22 16:37:00,91.9,64.2,29.90,SW,226,11.0,32.0,40,0.00,,,0.00,meteohub,2013-06-22 21:37:00,
2013-06-22 16:42:00,92.1,64.4,29.89,SSE,156,13.0,32.0,40,0.00,,,0.00,meteohub,2013-06-22 21:42:00,
2013-06-22 16:47:00,91.9,63.5,29.89,SSE,150,17.0,32.0,39,0.00,,,0.00,meteohub,2013-06-22 21:47:00,
2013-06-22 16:52:00,92.1,63.7,29.89,SW,218,20.0,30.0,39,0.00,,,0.00,meteohub,2013-06-22 21:52:00,
2013-06-22 16:57:00,91.8,63.3,29.89,SSW,204,24.0,33.0,39,0.00,,,0.00,meteohub,2013-06-22 21:57:00,
2013-06-22 17:02:00,91.8,63.3,29.89,SE,141,25.0,33.0,39,0.00,,,0.00,meteohub,2013-06-22 22:02:00,
2013-06-22 17:07:00,91.8,64.0,29.89,SW,235,12.0,33.0,40,0.00,,,0.00,meteohub,2013-06-22 22:07:00,
2013-06-22 17:12:00,91.9,63.5,29.89,ESE,119,21.0,30.0,39,0.00,,,0.00,meteohub,2013-06-22 22:12:00,
2013-06-22 17:17:00,91.8,64.0,29.89,SSE,160,17.0,30.0,40,0.00,,,0.00,meteohub,2013-06-22 22:17:00,
2013-06-22 17:22:00,91.6,63.9,29.89,South,170,15.0,28.0,40,0.00,,,0.00,meteohub,2013-06-22 22:22:00,
2013-06-22 17:27:00,91.8,64.0,29.89,SSE,164,20.0,28.0,40,0.00,,,0.00,meteohub,2013-06-22 22:27:00,
2013-06-22 17:32:00,91.6,63.9,29.89,SSW,198,11.0,29.0,40,0.00,,,0.00,meteohub,2013-06-22 22:32:00,
2013-06-22 17:37:00,91.4,63.7,29.89,SW,216,20.0,29.0,40,0.00,,,0.00,meteohub,2013-06-22 22:37:00,
2013-06-22 17:42:00,91.2,63.5,29.89,SSE,158,14.0,30.0,40,0.00,,,0.00,meteohub,2013-06-22 22:42:00,
2013-06-22 17:47:00,91.0,64.0,29.89,SSE,158,11.0,30.0,41,0.00,,,0.00,meteohub,2013-06-22 22:47:00,
2013-06-22 17:52:00,91.0,64.0,29.88,ESE,113,18.0,31.0,41,0.00,,,0.00,meteohub,2013-06-22 22:52:00,
2013-06-22 17:57:00,91.2,63.5,29.88,SE,145,12.0,31.0,40,0.00,,,0.00,meteohub,2013-06-22 22:57:00,
2013-06-22 18:02:00,91.4,63.7,29.88,SSE,158,15.0,31.0,40,0.00,,,0.00,meteohub,2013-06-22 23:02:00,
2013-06-22 18:07:00,91.2,62.8,29.88,SE,133,8.0,31.0,39,0.00,,,0.00,meteohub,2013-06-22 23:07:00,
2013-06-22 18:12:00,91.0,62.6,29.88,SE,130,17.0,28.0,39,0.00,,,0.00,meteohub,2013-06-22 23:12:00,
2013-06-22 18:17:00,90.9,62.4,29.88,South,172,20.0,33.0,39,0.00,,,0.00,meteohub,2013-06-22 23:17:00,
2013-06-22 18:22:00,90.7,62.2,29.88,SSE,166,10.0,33.0,39,0.00,,,0.00,meteohub,2013-06-22 23:22:00,
2013-06-22 18:26:00,90.9,62.4,29.88,SSE,168,7.0,33.0,39,0.00,,,0.00,meteohub,2013-06-22 23:26:00,
2013-06-22 18:32:00,90.9,62.4,29.88,South,188,16.0,26.0,39,0.00,,,0.00,meteohub,2013-06-22 23:32:00,
2013-06-22 18:37:00,91.0,62.6,29.88,SE,146,13.0,26.0,39,0.00,,,0.00,meteohub,2013-06-22 23:37:00,
2013-06-22 18:42:00,90.9,62.4,29.88,SW,219,19.0,26.0,39,0.00,,,0.00,meteohub,2013-06-22 23:42:00,
2013-06-22 18:47:00,90.7,61.5,29.88,SE,135,13.0,29.0,38,0.00,,,0.00,meteohub,2013-06-22 23:47:00,
2013-06-22 18:52:00,90.5,61.3,29.87,SSE,152,18.0,29.0,38,0.00,,,0.00,meteohub,2013-06-22 23:52:00,
2013-06-22 18:56:00,90.1,61.9,29.87,South,191,11.0,29.0,39,0.00,,,0.00,meteohub,2013-06-22 23:56:00,
2013-06-22 19:01:00,90.1,61.9,29.87,SW,217,14.0,29.0,39,0.00,,,0.00,meteohub,2013-06-23 00:01:00,
2013-06-22 19:07:00,90.0,61.7,29.87,SE,142,21.0,29.0,39,0.00,,,0.00,meteohub,2013-06-23 00:07:00,
2013-06-22 19:12:00,89.8,61.5,29.87,SSE,164,23.0,25.0,39,0.00,,,0.00,meteohub,2013-06-23 00:12:00,
2013-06-22 19:17:00,89.6,62.1,29.87,South,181,15.0,30.0,40,0.00,,,0.00,meteohub,2013-06-23 00:17:00,
2013-06-22 19:22:00,89.4,61.9,29.87,SSE,158,17.0,30.0,40,0.00,,,0.00,meteohub,2013-06-23 00:22:00,
2013-06-22 19:27:00,89.2,61.7,29.87,SSE,161,19.0,30.0,40,0.00,,,0.00,meteohub,2013-06-23 00:27:00,
2013-06-22 19:32:00,89.2,62.4,29.87,SSW,212,15.0,30.0,41,0.00,,,0.00,meteohub,2013-06-23 00:32:00,
2013-06-22 19:37:00,88.9,62.1,29.87,SSW,208,5.0,30.0,41,0.00,,,0.00,meteohub,2013-06-23 00:37:00,
2013-06-22 19:42:00,88.9,62.1,29.87,West,280,4.0,25.0,41,0.00,,,0.00,meteohub,2013-06-23 00:42:00,
2013-06-22 19:47:00,88.5,62.4,29.87,South,183,15.0,25.0,42,0.00,,,0.00,meteohub,2013-06-23 00:47:00,
2013-06-22 19:52:00,88.3,61.7,29.87,SSW,212,9.0,26.0,41,0.00,,,0.00,meteohub,2013-06-23 00:52:00,
2013-06-22 19:57:00,88.0,60.6,29.87,SSE,160,9.0,26.0,40,0.00,,,0.00,meteohub,2013-06-23 00:57:00,
2013-06-22 20:02:00,88.0,60.6,29.87,South,172,4.0,24.0,40,0.00,,,0.00,meteohub,2013-06-23 01:02:00,
2013-06-22 20:07:00,87.6,61.0,29.87,SSE,163,12.0,24.0,41,0.00,,,0.00,meteohub,2013-06-23 01:07:00,
2013-06-22 20:12:00,87.4,60.8,29.88,South,190,12.0,22.0,41,0.00,,,0.00,meteohub,2013-06-23 01:12:00,
2013-06-22 20:17:00,87.3,60.6,29.87,SSE,152,12.0,22.0,41,0.00,,,0.00,meteohub,2013-06-23 01:17:00,
2013-06-22 20:22:00,87.1,61.2,29.88,South,180,16.0,22.0,42,0.00,,,0.00,meteohub,2013-06-23 01:22:00,
2013-06-22 20:27:00,86.7,60.8,29.88,ESE,116,16.0,24.0,42,0.00,,,0.00,meteohub,2013-06-23 01:27:00,
2013-06-22 20:32:00,86.7,60.8,29.87,SSE,158,11.0,24.0,42,0.00,,,0.00,meteohub,2013-06-23 01:32:00,
2013-06-22 20:37:00,86.4,60.6,29.88,ESE,119,7.0,24.0,42,0.00,,,0.00,meteohub,2013-06-23 01:37:00,
2013-06-22 20:42:00,86.4,60.6,29.88,SE,138,13.0,26.0,42,0.00,,,0.00,meteohub,2013-06-23 01:42:00,
2013-06-22 20:47:00,86.2,61.0,29.88,ESE,111,16.0,26.0,43,0.00,,,0.00,meteohub,2013-06-23 01:47:00,
2013-06-22 20:52:00,85.8,62.1,29.88,SE,139,12.0,26.0,45,0.00,,,0.00,meteohub,2013-06-23 01:52:00,
2013-06-22 20:57:00,85.5,63.0,29.88,ESE,115,4.0,22.0,47,0.00,,,0.00,meteohub,2013-06-23 01:57:00,
2013-06-22 21:02:00,85.1,63.9,29.88,SSE,165,6.0,22.0,49,0.00,,,0.00,meteohub,2013-06-23 02:02:00,
2013-06-22 21:07:00,84.7,64.6,29.88,South,180,8.0,19.0,51,0.00,,,0.00,meteohub,2013-06-23 02:07:00,
2013-06-22 21:12:00,84.6,64.9,29.88,ESE,121,9.0,22.0,52,0.00,,,0.00,meteohub,2013-06-23 02:12:00,
2013-06-22 21:17:00,84.4,64.8,29.88,SW,233,12.0,22.0,52,0.00,,,0.00,meteohub,2013-06-23 02:17:00,
2013-06-22 21:22:00,84.2,65.3,29.88,SSE,149,13.0,20.0,53,0.00,,,0.00,meteohub,2013-06-23 02:22:00,
2013-06-22 21:27:00,84.0,65.1,29.88,SSE,149,9.0,20.0,53,0.00,,,0.00,meteohub,2013-06-23 02:27:00,
2013-06-22 21:32:00,83.8,65.5,29.89,SSE,155,19.0,25.0,54,0.00,,,0.00,meteohub,2013-06-23 02:32:00,
2013-06-22 21:37:00,83.8,65.5,29.89,SSE,149,13.0,25.0,54,0.00,,,0.00,meteohub,2013-06-23 02:37:00,
2013-06-22 21:42:00,83.7,65.8,29.89,SSE,158,5.0,24.0,55,0.00,,,0.00,meteohub,2013-06-23 02:42:00,
2013-06-22 21:47:00,83.5,65.7,29.89,SE,133,16.0,24.0,55,0.00,,,0.00,meteohub,2013-06-23 02:47:00,
2013-06-22 21:52:00,83.5,66.2,29.89,East,98,5.0,20.0,56,0.00,,,0.00,meteohub,2013-06-23 02:52:00,
2013-06-22 21:57:00,83.1,65.8,29.90,SSE,165,5.0,20.0,56,0.00,,,0.00,meteohub,2013-06-23 02:57:00,
2013-06-22 22:02:00,83.1,65.8,29.90,SSE,158,17.0,22.0,56,0.00,,,0.00,meteohub,2013-06-23 03:02:00,
2013-06-22 22:07:00,82.9,65.7,29.90,SE,131,9.0,22.0,56,0.00,,,0.00,meteohub,2013-06-23 03:07:00,
2013-06-22 22:12:00,82.9,66.2,29.90,SE,127,14.0,22.0,57,0.00,,,0.00,meteohub,2013-06-23 03:12:00,
2013-06-22 22:17:00,82.8,66.0,29.90,SSE,165,16.0,21.0,57,0.00,,,0.00,meteohub,2013-06-23 03:17:00,
2013-06-22 22:22:00,82.6,65.8,29.90,SSE,162,17.0,21.0,57,0.00,,,0.00,meteohub,2013-06-23 03:22:00,
2013-06-22 22:27:00,82.4,66.2,29.90,South,176,9.0,21.0,58,0.00,,,0.00,meteohub,2013-06-23 03:27:00,
2013-06-22 22:32:00,82.2,66.0,29.90,South,169,7.0,21.0,58,0.00,,,0.00,meteohub,2013-06-23 03:32:00,
2013-06-22 22:37:00,82.0,66.4,29.91,SSW,193,8.0,21.0,59,0.00,,,0.00,meteohub,2013-06-23 03:37:00,
2013-06-22 22:42:00,82.0,66.4,29.91,SSE,154,7.0,21.0,59,0.00,,,0.00,meteohub,2013-06-23 03:42:00,
2013-06-22 22:47:00,81.9,66.2,29.91,ESE,109,18.0,23.0,59,0.00,,,0.00,meteohub,2013-06-23 03:47:00,
2013-06-22 22:52:00,81.9,66.6,29.90,SSE,147,6.0,23.0,60,0.00,,,0.00,meteohub,2013-06-23 03:52:00,
2013-06-22 22:57:00,81.7,66.4,29.91,SSE,161,12.0,25.0,60,0.00,,,0.00,meteohub,2013-06-23 03:57:00,
2013-06-22 23:01:00,81.7,66.4,29.91,South,184,6.0,25.0,60,0.00,,,0.00,meteohub,2013-06-23 04:01:00,
2013-06-22 23:06:00,81.5,66.2,29.91,SE,137,11.0,25.0,60,0.00,,,0.00,meteohub,2013-06-23 04:06:00,
2013-06-22 23:11:00,81.5,66.7,29.91,SSW,204,9.0,19.0,61,0.00,,,0.00,meteohub,2013-06-23 04:11:00,
2013-06-22 23:16:00,81.3,66.6,29.91,West,274,11.0,22.0,61,0.00,,,0.00,meteohub,2013-06-23 04:16:00,
2013-06-22 23:21:00,81.3,66.6,29.91,SSE,155,10.0,22.0,61,0.00,,,0.00,meteohub,2013-06-23 04:21:00,
2013-06-22 23:26:00,81.3,67.1,29.91,SE,142,16.0,22.0,62,0.00,,,0.00,meteohub,2013-06-23 04:26:00,
2013-06-22 23:31:00,81.1,66.9,29.91,SSW,197,7.0,25.0,62,0.00,,,0.00,meteohub,2013-06-23 04:31:00,
2013-06-22 23:36:00,81.1,66.9,29.91,SSE,166,13.0,25.0,62,0.00,,,0.00,meteohub,2013-06-23 04:36:00,
2013-06-22 23:41:00,81.0,67.1,29.91,ESE,108,14.0,25.0,63,0.00,,,0.00,meteohub,2013-06-23 04:41:00,
2013-06-22 23:46:00,81.0,67.1,29.91,SE,135,19.0,26.0,63,0.00,,,0.00,meteohub,2013-06-23 04:46:00,
2013-06-22 23:51:00,80.8,67.5,29.91,SSE,158,10.0,26.0,64,0.00,,,0.00,meteohub,2013-06-23 04:51:00,
2013-06-22 23:56:00,80.8,67.5,29.91,SSW,200,17.0,27.0,64,0.00,,,0.00,meteohub,2013-06-23 04:56:00,